Year,Month,Day,Hour,Minute,Value (Times are PST for temperature in C)
2012,04,21,00,00,5.10
2012,04,21,00,01,5.10
2012,04,21,00,02,5.00
2012,04,21,00,03,5.00
2012,04,21,00,04,4.90
2012,04,21,00,05,4.90
2012,04,21,00,06,4.90
2012,04,21,00,07,4.90
2012,04,21,00,08,4.90
2012,04,21,00,09,4.90
2012,04,21,00,10,4.90
2012,04,21,00,11,4.90
2012,04,21,00,12,4.80
2012,04,21,00,13,4.80
2012,04,21,00,14,4.80
2012,04,21,00,15,4.80
2012,04,21,00,16,4.80
2012,04,21,00,17,4.80
2012,04,21,00,18,4.80
2012,04,21,00,19,4.80
2012,04,21,00,20,4.70
2012,04,21,00,21,4.70
2012,04,21,00,22,4.70
2012,04,21,00,23,4.70
2012,04,21,00,24,4.70
2012,04,21,00,25,4.70
2012,04,21,00,26,4.60
2012,04,21,00,27,4.60
2012,04,21,00,28,4.60
2012,04,21,00,29,4.60
2012,04,21,00,30,4.60
2012,04,21,00,31,4.60
2012,04,21,00,32,4.60
2012,04,21,00,33,4.60
2012,04,21,00,34,4.50
2012,04,21,00,35,4.50
2012,04,21,00,36,4.50
2012,04,21,00,37,4.40
2012,04,21,00,38,4.40
2012,04,21,00,39,4.40
2012,04,21,00,40,4.30
2012,04,21,00,41,4.30
2012,04,21,00,42,4.30
2012,04,21,00,43,4.30
2012,04,21,00,44,4.30
2012,04,21,00,45,4.30
2012,04,21,00,46,4.20
2012,04,21,00,47,4.20
2012,04,21,00,48,4.20
2012,04,21,00,49,4.20
2012,04,21,00,50,4.20
2012,04,21,00,51,4.20
2012,04,21,00,52,4.20
2012,04,21,00,53,4.20
2012,04,21,00,54,4.20
2012,04,21,00,55,4.20
2012,04,21,00,56,4.10
2012,04,21,00,57,4.10
2012,04,21,00,58,4.10
2012,04,21,00,59,4.10
2012,04,21,01,00,4.10
2012,04,21,01,01,4.10
2012,04,21,01,02,4.10
2012,04,21,01,03,4.10
2012,04,21,01,04,4.10
2012,04,21,01,05,4.10
2012,04,21,01,06,4.00
2012,04,21,01,07,4.00
2012,04,21,01,08,4.00
2012,04,21,01,09,4.00
2012,04,21,01,10,4.00
2012,04,21,01,11,4.00
2012,04,21,01,12,4.00
2012,04,21,01,13,3.90
2012,04,21,01,14,3.90
2012,04,21,01,15,3.90
2012,04,21,01,16,3.90
2012,04,21,01,17,3.90
2012,04,21,01,18,3.80
2012,04,21,01,19,3.80
2012,04,21,01,20,3.80
2012,04,21,01,21,3.80
2012,04,21,01,22,3.80
2012,04,21,01,23,3.80
2012,04,21,01,24,3.70
2012,04,21,01,25,3.70
2012,04,21,01,26,3.80
2012,04,21,01,27,3.80
2012,04,21,01,28,3.80
2012,04,21,01,29,3.80
2012,04,21,01,30,3.80
2012,04,21,01,31,3.80
2012,04,21,01,32,3.80
2012,04,21,01,33,3.80
2012,04,21,01,34,3.80
2012,04,21,01,35,3.80
2012,04,21,01,36,3.80
2012,04,21,01,37,3.80
2012,04,21,01,38,3.80
2012,04,21,01,39,3.70
2012,04,21,01,40,3.70
2012,04,21,01,41,3.70
2012,04,21,01,42,3.70
2012,04,21,01,43,3.70
2012,04,21,01,44,3.70
2012,04,21,01,45,3.70
2012,04,21,01,46,3.70
2012,04,21,01,47,3.70
2012,04,21,01,48,3.70
2012,04,21,01,49,3.60
2012,04,21,01,50,3.60
2012,04,21,01,51,3.60
2012,04,21,01,52,3.60
2012,04,21,01,53,3.60
2012,04,21,01,54,3.60
2012,04,21,01,55,3.50
2012,04,21,01,56,3.50
2012,04,21,01,57,3.50
2012,04,21,01,58,3.50
2012,04,21,01,59,3.40
2012,04,21,02,00,3.40
2012,04,21,02,01,3.40
2012,04,21,02,02,3.40
2012,04,21,02,03,3.40
2012,04,21,02,04,3.40
2012,04,21,02,05,3.40
2012,04,21,02,06,3.40
2012,04,21,02,07,3.40
2012,04,21,02,08,3.40
2012,04,21,02,09,3.40
2012,04,21,02,10,3.40
2012,04,21,02,11,3.40
2012,04,21,02,12,3.40
2012,04,21,02,13,3.40
2012,04,21,02,14,3.40
2012,04,21,02,15,3.40
2012,04,21,02,16,3.30
2012,04,21,02,17,3.30
2012,04,21,02,18,3.30
2012,04,21,02,19,3.30
2012,04,21,02,20,3.30
2012,04,21,02,21,3.30
2012,04,21,02,22,3.30
2012,04,21,02,23,3.30
2012,04,21,02,24,3.20
2012,04,21,02,25,3.20
2012,04,21,02,26,3.20
2012,04,21,02,27,3.20
2012,04,21,02,28,3.20
2012,04,21,02,29,3.20
2012,04,21,02,30,3.20
2012,04,21,02,31,3.20
2012,04,21,02,32,3.20
2012,04,21,02,33,3.20
2012,04,21,02,34,3.20
2012,04,21,02,35,3.20
2012,04,21,02,36,3.20
2012,04,21,02,37,3.20
2012,04,21,02,38,3.10
2012,04,21,02,39,3.10
2012,04,21,02,40,3.10
2012,04,21,02,41,3.10
2012,04,21,02,42,3.10
2012,04,21,02,43,3.10
2012,04,21,02,44,3.10
2012,04,21,02,45,3.10
2012,04,21,02,46,3.10
2012,04,21,02,47,3.00
2012,04,21,02,48,3.00
2012,04,21,02,49,2.90
2012,04,21,02,50,2.90
2012,04,21,02,51,2.90
2012,04,21,02,52,2.90
2012,04,21,02,53,2.90
2012,04,21,02,54,2.90
2012,04,21,02,55,2.80
2012,04,21,02,56,2.80
2012,04,21,02,57,2.80
2012,04,21,02,58,2.80
2012,04,21,02,59,2.80
2012,04,21,03,00,2.80
2012,04,21,03,01,2.80
2012,04,21,03,02,2.80
2012,04,21,03,03,2.80
2012,04,21,03,04,2.80
2012,04,21,03,05,2.80
2012,04,21,03,06,2.80
2012,04,21,03,07,2.80
2012,04,21,03,08,2.80
2012,04,21,03,09,2.80
2012,04,21,03,10,2.80
2012,04,21,03,11,2.80
2012,04,21,03,12,2.80
2012,04,21,03,13,2.80
2012,04,21,03,14,2.80
2012,04,21,03,15,2.80
2012,04,21,03,16,2.80
2012,04,21,03,17,2.80
2012,04,21,03,18,2.80
2012,04,21,03,19,2.80
2012,04,21,03,20,2.80
2012,04,21,03,21,2.80
2012,04,21,03,22,2.80
2012,04,21,03,23,2.80
2012,04,21,03,24,2.80
2012,04,21,03,25,2.80
2012,04,21,03,26,2.80
2012,04,21,03,27,2.70
2012,04,21,03,28,2.80
2012,04,21,03,29,2.80
2012,04,21,03,30,2.80
2012,04,21,03,31,2.70
2012,04,21,03,32,2.70
2012,04,21,03,33,2.70
2012,04,21,03,34,2.70
2012,04,21,03,35,2.70
2012,04,21,03,36,2.70
2012,04,21,03,37,2.70
2012,04,21,03,38,2.70
2012,04,21,03,39,2.70
2012,04,21,03,40,2.70
2012,04,21,03,41,2.70
2012,04,21,03,42,2.70
2012,04,21,03,43,2.70
2012,04,21,03,44,2.70
2012,04,21,03,45,2.70
2012,04,21,03,46,2.70
2012,04,21,03,47,2.60
2012,04,21,03,48,2.60
2012,04,21,03,49,2.60
2012,04,21,03,50,2.60
2012,04,21,03,51,2.60
2012,04,21,03,52,2.60
2012,04,21,03,53,2.60
2012,04,21,03,54,2.60
2012,04,21,03,55,2.60
2012,04,21,03,56,2.60
2012,04,21,03,57,2.60
2012,04,21,03,58,2.50
2012,04,21,03,59,2.50
2012,04,21,04,00,2.50
2012,04,21,04,01,2.50
2012,04,21,04,02,2.50
2012,04,21,04,03,2.50
2012,04,21,04,04,2.50
2012,04,21,04,05,2.50
2012,04,21,04,06,2.50
2012,04,21,04,07,2.50
2012,04,21,04,08,2.50
2012,04,21,04,09,2.50
2012,04,21,04,10,2.50
2012,04,21,04,11,2.50
2012,04,21,04,12,2.50
2012,04,21,04,13,2.50
2012,04,21,04,14,2.50
2012,04,21,04,15,2.50
2012,04,21,04,16,2.50
2012,04,21,04,17,2.50
2012,04,21,04,18,2.50
2012,04,21,04,19,2.50
2012,04,21,04,20,2.50
2012,04,21,04,21,2.50
2012,04,21,04,22,2.50
2012,04,21,04,23,2.40
2012,04,21,04,24,2.40
2012,04,21,04,25,2.40
2012,04,21,04,26,2.40
2012,04,21,04,27,2.30
2012,04,21,04,28,2.30
2012,04,21,04,29,2.30
2012,04,21,04,30,2.30
2012,04,21,04,31,2.30
2012,04,21,04,32,2.30
2012,04,21,04,33,2.30
2012,04,21,04,34,2.30
2012,04,21,04,35,2.30
2012,04,21,04,36,2.30
2012,04,21,04,37,2.30
2012,04,21,04,38,2.30
2012,04,21,04,39,2.30
2012,04,21,04,40,2.30
2012,04,21,04,41,2.20
2012,04,21,04,42,2.20
2012,04,21,04,43,2.20
2012,04,21,04,44,2.20
2012,04,21,04,45,2.20
2012,04,21,04,46,2.20
2012,04,21,04,47,2.20
2012,04,21,04,48,2.30
2012,04,21,04,49,2.30
2012,04,21,04,50,2.30
2012,04,21,04,51,2.30
2012,04,21,04,52,2.30
2012,04,21,04,53,2.30
2012,04,21,04,54,2.30
2012,04,21,04,55,2.30
2012,04,21,04,56,2.30
2012,04,21,04,57,2.30
2012,04,21,04,58,2.30
2012,04,21,04,59,2.30
2012,04,21,05,00,2.30
2012,04,21,05,01,2.30
2012,04,21,05,02,2.30
2012,04,21,05,03,2.30
2012,04,21,05,04,2.30
2012,04,21,05,05,2.30
2012,04,21,05,06,2.30
2012,04,21,05,07,2.30
2012,04,21,05,08,2.30
2012,04,21,05,09,2.30
2012,04,21,05,10,2.30
2012,04,21,05,11,2.30
2012,04,21,05,12,2.30
2012,04,21,05,13,2.30
2012,04,21,05,14,2.30
2012,04,21,05,15,2.30
2012,04,21,05,16,2.30
2012,04,21,05,17,2.30
2012,04,21,05,18,2.30
2012,04,21,05,19,2.30
2012,04,21,05,20,2.30
2012,04,21,05,21,2.30
2012,04,21,05,22,2.30
2012,04,21,05,23,2.30
2012,04,21,05,24,2.30
2012,04,21,05,25,2.30
2012,04,21,05,26,2.30
2012,04,21,05,27,2.30
2012,04,21,05,28,2.30
2012,04,21,05,29,2.30
2012,04,21,05,30,2.30
2012,04,21,05,31,2.30
2012,04,21,05,32,2.30
2012,04,21,05,33,2.30
2012,04,21,05,34,2.30
2012,04,21,05,35,2.30
2012,04,21,05,36,2.30
2012,04,21,05,37,2.30
2012,04,21,05,38,2.30
2012,04,21,05,39,2.30
2012,04,21,05,40,2.30
2012,04,21,05,41,2.30
2012,04,21,05,42,2.30
2012,04,21,05,43,2.30
2012,04,21,05,44,2.30
2012,04,21,05,45,2.30
2012,04,21,05,46,2.30
2012,04,21,05,47,2.30
2012,04,21,05,48,2.30
2012,04,21,05,49,2.30
2012,04,21,05,50,2.30
2012,04,21,05,51,2.30
2012,04,21,05,52,2.30
2012,04,21,05,53,2.30
2012,04,21,05,54,2.30
2012,04,21,05,55,2.40
2012,04,21,05,56,2.30
2012,04,21,05,57,2.30
2012,04,21,05,58,2.30
2012,04,21,05,59,2.30
2012,04,21,06,00,2.30
2012,04,21,06,01,2.30
2012,04,21,06,02,2.30
2012,04,21,06,03,2.30
2012,04,21,06,04,2.30
2012,04,21,06,05,2.30
2012,04,21,06,06,2.30
2012,04,21,06,07,2.30
2012,04,21,06,08,2.30
2012,04,21,06,09,2.30
2012,04,21,06,10,2.30
2012,04,21,06,11,2.30
2012,04,21,06,12,2.30
2012,04,21,06,13,2.30
2012,04,21,06,14,2.30
2012,04,21,06,15,2.30
2012,04,21,06,16,2.30
2012,04,21,06,17,2.30
2012,04,21,06,18,2.30
2012,04,21,06,19,2.30
2012,04,21,06,20,2.30
2012,04,21,06,21,2.30
2012,04,21,06,22,2.30
2012,04,21,06,23,2.30
2012,04,21,06,24,2.30
2012,04,21,06,25,2.30
2012,04,21,06,26,2.30
2012,04,21,06,27,2.30
2012,04,21,06,28,2.30
2012,04,21,06,29,2.30
2012,04,21,06,30,2.30
2012,04,21,06,31,2.30
2012,04,21,06,32,2.30
2012,04,21,06,33,2.30
2012,04,21,06,34,2.30
2012,04,21,06,35,2.30
2012,04,21,06,36,2.30
2012,04,21,06,37,2.30
2012,04,21,06,38,2.30
2012,04,21,06,39,2.30
2012,04,21,06,40,2.30
2012,04,21,06,41,2.30
2012,04,21,06,42,2.30
2012,04,21,06,43,2.30
2012,04,21,06,44,2.30
2012,04,21,06,45,2.30
2012,04,21,06,46,2.30
2012,04,21,06,47,2.40
2012,04,21,06,48,2.40
2012,04,21,06,49,2.40
2012,04,21,06,50,2.40
2012,04,21,06,51,2.40
2012,04,21,06,52,2.40
2012,04,21,06,53,2.40
2012,04,21,06,54,2.40
2012,04,21,06,55,2.40
2012,04,21,06,56,2.40
2012,04,21,06,57,2.40
2012,04,21,06,58,2.50
2012,04,21,06,59,2.50
2012,04,21,07,00,2.50
2012,04,21,07,01,2.50
2012,04,21,07,02,2.50
2012,04,21,07,03,2.60
2012,04,21,07,04,2.60
2012,04,21,07,05,2.60
2012,04,21,07,06,2.60
2012,04,21,07,07,2.60
2012,04,21,07,08,2.60
2012,04,21,07,09,2.60
2012,04,21,07,10,2.60
2012,04,21,07,11,2.60
2012,04,21,07,12,2.60
2012,04,21,07,13,2.60
2012,04,21,07,14,2.60
2012,04,21,07,15,2.60
2012,04,21,07,16,2.60
2012,04,21,07,17,2.70
2012,04,21,07,18,2.70
2012,04,21,07,19,2.70
2012,04,21,07,20,2.70
2012,04,21,07,21,2.70
2012,04,21,07,22,2.70
2012,04,21,07,23,2.70
2012,04,21,07,24,2.70
2012,04,21,07,25,2.70
2012,04,21,07,26,2.70
2012,04,21,07,27,2.70
2012,04,21,07,28,2.70
2012,04,21,07,29,2.70
2012,04,21,07,30,2.70
2012,04,21,07,31,2.80
2012,04,21,07,32,2.80
2012,04,21,07,33,2.80
2012,04,21,07,34,2.80
2012,04,21,07,35,2.80
2012,04,21,07,36,2.80
2012,04,21,07,37,2.80
2012,04,21,07,38,2.80
2012,04,21,07,39,2.90
2012,04,21,07,40,2.90
2012,04,21,07,41,2.90
2012,04,21,07,42,2.90
2012,04,21,07,43,3.00
2012,04,21,07,44,3.00
2012,04,21,07,45,3.00
2012,04,21,07,46,3.00
2012,04,21,07,47,3.10
2012,04,21,07,48,3.10
2012,04,21,07,49,3.10
2012,04,21,07,50,3.10
2012,04,21,07,51,3.10
2012,04,21,07,52,3.20
2012,04,21,07,53,3.20
2012,04,21,07,54,3.20
2012,04,21,07,55,3.20
2012,04,21,07,56,3.20
2012,04,21,07,57,3.30
2012,04,21,07,58,3.30
2012,04,21,07,59,3.30
2012,04,21,08,00,3.30
2012,04,21,08,01,3.40
2012,04,21,08,02,3.40
2012,04,21,08,03,3.40
2012,04,21,08,04,3.50
2012,04,21,08,05,3.50
2012,04,21,08,06,3.60
2012,04,21,08,07,3.60
2012,04,21,08,08,3.60
2012,04,21,08,09,3.70
2012,04,21,08,10,3.70
2012,04,21,08,11,3.80
2012,04,21,08,12,3.80
2012,04,21,08,13,3.80
2012,04,21,08,14,3.80
2012,04,21,08,15,3.80
2012,04,21,08,16,3.90
2012,04,21,08,17,3.90
2012,04,21,08,18,3.90
2012,04,21,08,19,3.90
2012,04,21,08,20,4.00
2012,04,21,08,21,4.00
2012,04,21,08,22,4.10
2012,04,21,08,23,4.10
2012,04,21,08,24,4.10
2012,04,21,08,25,4.10
2012,04,21,08,26,4.20
2012,04,21,08,27,4.20
2012,04,21,08,28,4.30
2012,04,21,08,29,4.30
2012,04,21,08,30,4.30
2012,04,21,08,31,4.40
2012,04,21,08,32,4.40
2012,04,21,08,33,4.50
2012,04,21,08,34,4.60
2012,04,21,08,35,4.60
2012,04,21,08,36,4.70
2012,04,21,08,37,4.70
2012,04,21,08,38,4.80
2012,04,21,08,39,4.80
2012,04,21,08,40,4.90
2012,04,21,08,41,4.90
2012,04,21,08,42,4.90
2012,04,21,08,43,5.00
2012,04,21,08,44,5.10
2012,04,21,08,45,5.10
2012,04,21,08,46,5.20
2012,04,21,08,47,5.20
2012,04,21,08,48,5.30
2012,04,21,08,49,5.30
2012,04,21,08,50,5.40
2012,04,21,08,51,5.40
2012,04,21,08,52,5.50
2012,04,21,08,53,5.50
2012,04,21,08,54,5.60
2012,04,21,08,55,5.60
2012,04,21,08,56,5.70
2012,04,21,08,57,5.70
2012,04,21,08,58,5.80
2012,04,21,08,59,5.80
2012,04,21,09,00,5.80
2012,04,21,09,01,5.90
2012,04,21,09,02,5.90
2012,04,21,09,03,5.90
2012,04,21,09,04,6.00
2012,04,21,09,05,6.00
2012,04,21,09,06,6.10
2012,04,21,09,07,6.20
2012,04,21,09,08,6.20
2012,04,21,09,09,6.30
2012,04,21,09,10,6.40
2012,04,21,09,11,6.50
2012,04,21,09,12,6.70
2012,04,21,09,13,6.80
2012,04,21,09,14,6.80
2012,04,21,09,15,7.00
2012,04,21,09,16,7.10
2012,04,21,09,17,7.20
2012,04,21,09,18,7.30
2012,04,21,09,19,7.30
2012,04,21,09,20,7.40
2012,04,21,09,21,7.50
2012,04,21,09,22,7.60
2012,04,21,09,23,7.70
2012,04,21,09,24,7.70
2012,04,21,09,25,7.70
2012,04,21,09,26,7.80
2012,04,21,09,27,7.80
2012,04,21,09,28,7.90
2012,04,21,09,29,7.90
2012,04,21,09,30,8.00
2012,04,21,09,31,8.10
2012,04,21,09,32,8.10
2012,04,21,09,33,8.20
2012,04,21,09,34,8.20
2012,04,21,09,35,8.30
2012,04,21,09,36,8.30
2012,04,21,09,37,8.40
2012,04,21,09,38,8.50
2012,04,21,09,39,8.50
2012,04,21,09,40,8.60
2012,04,21,09,41,8.60
2012,04,21,09,42,8.70
2012,04,21,09,43,8.70
2012,04,21,09,44,8.70
2012,04,21,09,45,8.70
2012,04,21,09,46,8.80
2012,04,21,09,47,8.80
2012,04,21,09,48,8.90
2012,04,21,09,49,8.90
2012,04,21,09,50,9.00
2012,04,21,09,51,9.00
2012,04,21,09,52,9.10
2012,04,21,09,53,9.10
2012,04,21,09,54,9.20
2012,04,21,09,55,9.20
2012,04,21,09,56,9.20
2012,04,21,09,57,9.20
2012,04,21,09,58,9.20
2012,04,21,09,59,9.20
2012,04,21,10,00,9.20
2012,04,21,10,01,9.20
2012,04,21,10,02,9.20
2012,04,21,10,03,9.30
2012,04,21,10,04,9.30
2012,04,21,10,05,9.30
2012,04,21,10,06,9.30
2012,04,21,10,07,9.40
2012,04,21,10,08,9.40
2012,04,21,10,09,9.40
2012,04,21,10,10,9.50
2012,04,21,10,11,9.50
2012,04,21,10,12,9.60
2012,04,21,10,13,9.70
2012,04,21,10,14,9.70
2012,04,21,10,15,9.80
2012,04,21,10,16,9.80
2012,04,21,10,17,9.80
2012,04,21,10,18,9.80
2012,04,21,10,19,9.90
2012,04,21,10,20,9.90
2012,04,21,10,21,9.90
2012,04,21,10,22,9.90
2012,04,21,10,23,10.00
2012,04,21,10,24,10.00
2012,04,21,10,25,10.10
2012,04,21,10,26,10.20
2012,04,21,10,27,10.30
2012,04,21,10,28,10.40
2012,04,21,10,29,10.40
2012,04,21,10,30,10.50
2012,04,21,10,31,10.60
2012,04,21,10,32,10.60
2012,04,21,10,33,10.60
2012,04,21,10,34,10.70
2012,04,21,10,35,10.70
2012,04,21,10,36,10.80
2012,04,21,10,37,10.80
2012,04,21,10,38,10.90
2012,04,21,10,39,11.00
2012,04,21,10,40,11.10
2012,04,21,10,41,11.20
2012,04,21,10,42,11.20
2012,04,21,10,43,11.10
2012,04,21,10,44,11.10
2012,04,21,10,45,11.10
2012,04,21,10,46,11.10
2012,04,21,10,47,11.10
2012,04,21,10,48,11.20
2012,04,21,10,49,11.20
2012,04,21,10,50,11.30
2012,04,21,10,51,11.30
2012,04,21,10,52,11.30
2012,04,21,10,53,11.30
2012,04,21,10,54,11.30
2012,04,21,10,55,11.40
2012,04,21,10,56,11.40
2012,04,21,10,57,11.50
2012,04,21,10,58,11.50
2012,04,21,10,59,11.60
2012,04,21,11,00,11.60
2012,04,21,11,01,11.60
2012,04,21,11,02,11.70
2012,04,21,11,03,11.70
2012,04,21,11,04,11.80
2012,04,21,11,05,11.80
2012,04,21,11,06,11.80
2012,04,21,11,07,11.80
2012,04,21,11,08,11.80
2012,04,21,11,09,11.80
2012,04,21,11,10,11.80
2012,04,21,11,11,11.90
2012,04,21,11,12,11.90
2012,04,21,11,13,12.00
2012,04,21,11,14,12.00
2012,04,21,11,15,12.00
2012,04,21,11,16,12.00
2012,04,21,11,17,12.00
2012,04,21,11,18,12.00
2012,04,21,11,19,12.00
2012,04,21,11,20,12.00
2012,04,21,11,21,12.00
2012,04,21,11,22,12.10
2012,04,21,11,23,12.10
2012,04,21,11,24,12.10
2012,04,21,11,25,12.10
2012,04,21,11,26,12.20
2012,04,21,11,27,12.20
2012,04,21,11,28,12.20
2012,04,21,11,29,12.30
2012,04,21,11,30,12.30
2012,04,21,11,31,12.30
2012,04,21,11,32,12.40
2012,04,21,11,33,12.40
2012,04,21,11,34,12.40
2012,04,21,11,35,12.40
2012,04,21,11,36,12.40
2012,04,21,11,37,12.40
2012,04,21,11,38,12.30
2012,04,21,11,39,12.30
2012,04,21,11,40,12.20
2012,04,21,11,41,12.20
2012,04,21,11,42,12.20
2012,04,21,11,43,12.20
2012,04,21,11,44,12.20
2012,04,21,11,45,12.30
2012,04,21,11,46,12.30
2012,04,21,11,47,12.40
2012,04,21,11,48,12.40
2012,04,21,11,49,12.50
2012,04,21,11,50,12.50
2012,04,21,11,51,12.50
2012,04,21,11,52,12.50
2012,04,21,11,53,12.50
2012,04,21,11,54,12.60
2012,04,21,11,55,12.60
2012,04,21,11,56,12.70
2012,04,21,11,57,12.70
2012,04,21,11,58,12.70
2012,04,21,11,59,12.80
2012,04,21,12,00,12.80
2012,04,21,12,01,12.80
2012,04,21,12,02,12.80
2012,04,21,12,03,12.80
2012,04,21,12,04,12.80
2012,04,21,12,05,12.80
2012,04,21,12,06,12.90
2012,04,21,12,07,12.90
2012,04,21,12,08,13.00
2012,04,21,12,09,13.00
2012,04,21,12,10,13.10
2012,04,21,12,11,13.10
2012,04,21,12,12,13.10
2012,04,21,12,13,13.20
2012,04,21,12,14,13.20
2012,04,21,12,15,13.10
2012,04,21,12,16,13.00
2012,04,21,12,17,13.00
2012,04,21,12,18,13.00
2012,04,21,12,19,13.00
2012,04,21,12,20,13.00
2012,04,21,12,21,13.10
2012,04,21,12,22,13.10
2012,04,21,12,23,13.20
2012,04,21,12,24,13.20
2012,04,21,12,25,13.20
2012,04,21,12,26,13.20
2012,04,21,12,27,13.30
2012,04,21,12,28,13.30
2012,04,21,12,29,13.40
2012,04,21,12,30,13.50
2012,04,21,12,31,13.60
2012,04,21,12,32,13.70
2012,04,21,12,33,13.70
2012,04,21,12,34,13.70
2012,04,21,12,35,13.70
2012,04,21,12,36,13.80
2012,04,21,12,37,13.80
2012,04,21,12,38,13.80
2012,04,21,12,39,13.70
2012,04,21,12,40,13.70
2012,04,21,12,41,13.70
2012,04,21,12,42,13.70
2012,04,21,12,43,13.70
2012,04,21,12,44,13.70
2012,04,21,12,45,13.70
2012,04,21,12,46,13.70
2012,04,21,12,47,13.70
2012,04,21,12,48,13.80
2012,04,21,12,49,13.80
2012,04,21,12,50,13.80
2012,04,21,12,51,13.80
2012,04,21,12,52,13.90
2012,04,21,12,53,14.00
2012,04,21,12,54,14.00
2012,04,21,12,55,14.00
2012,04,21,12,56,14.00
2012,04,21,12,57,14.00
2012,04,21,12,58,14.00
2012,04,21,12,59,14.00
2012,04,21,13,00,14.00
2012,04,21,13,01,14.00
2012,04,21,13,02,14.10
2012,04,21,13,03,14.00
2012,04,21,13,04,14.00
2012,04,21,13,05,14.00
2012,04,21,13,06,13.90
2012,04,21,13,07,13.90
2012,04,21,13,08,13.90
2012,04,21,13,09,13.80
2012,04,21,13,10,13.80
2012,04,21,13,11,13.80
2012,04,21,13,12,13.80
2012,04,21,13,13,13.90
2012,04,21,13,14,13.90
2012,04,21,13,15,13.90
2012,04,21,13,16,13.80
2012,04,21,13,17,13.80
2012,04,21,13,18,13.90
2012,04,21,13,19,13.90
2012,04,21,13,20,13.90
2012,04,21,13,21,14.00
2012,04,21,13,22,14.00
2012,04,21,13,23,14.10
2012,04,21,13,24,14.20
2012,04,21,13,25,14.30
2012,04,21,13,26,14.30
2012,04,21,13,27,14.30
2012,04,21,13,28,14.40
2012,04,21,13,29,14.40
2012,04,21,13,30,14.40
2012,04,21,13,31,14.40
2012,04,21,13,32,14.40
2012,04,21,13,33,14.40
2012,04,21,13,34,14.40
2012,04,21,13,35,14.40
2012,04,21,13,36,14.40
2012,04,21,13,37,14.40
2012,04,21,13,38,14.50
2012,04,21,13,39,14.50
2012,04,21,13,40,14.50
2012,04,21,13,41,14.60
2012,04,21,13,42,14.60
2012,04,21,13,43,14.60
2012,04,21,13,44,14.60
2012,04,21,13,45,14.60
2012,04,21,13,46,14.50
2012,04,21,13,47,14.40
2012,04,21,13,48,14.40
2012,04,21,13,49,14.40
2012,04,21,13,50,14.30
2012,04,21,13,51,14.30
2012,04,21,13,52,14.30
2012,04,21,13,53,14.30
2012,04,21,13,54,14.20
2012,04,21,13,55,14.20
2012,04,21,13,56,14.20
2012,04,21,13,57,14.20
2012,04,21,13,58,14.10
2012,04,21,13,59,14.10
2012,04,21,14,00,14.10
2012,04,21,14,01,14.10
2012,04,21,14,02,14.10
2012,04,21,14,03,14.10
2012,04,21,14,04,14.10
2012,04,21,14,05,14.10
2012,04,21,14,06,14.10
2012,04,21,14,07,14.10
2012,04,21,14,08,14.00
2012,04,21,14,09,14.00
2012,04,21,14,10,14.00
2012,04,21,14,11,13.90
2012,04,21,14,12,13.80
2012,04,21,14,13,13.80
2012,04,21,14,14,13.80
2012,04,21,14,15,13.70
2012,04,21,14,16,13.70
2012,04,21,14,17,13.70
2012,04,21,14,18,13.60
2012,04,21,14,19,13.60
2012,04,21,14,20,13.50
2012,04,21,14,21,13.40
2012,04,21,14,22,13.30
2012,04,21,14,23,13.20
2012,04,21,14,24,13.20
2012,04,21,14,25,13.20
2012,04,21,14,26,13.20
2012,04,21,14,27,13.30
2012,04,21,14,28,13.30
2012,04,21,14,29,13.30
2012,04,21,14,30,13.40
2012,04,21,14,31,13.50
2012,04,21,14,32,13.60
2012,04,21,14,33,13.60
2012,04,21,14,34,13.70
2012,04,21,14,35,13.80
2012,04,21,14,36,13.90
2012,04,21,14,37,14.00
2012,04,21,14,38,14.10
2012,04,21,14,39,14.10
2012,04,21,14,40,14.10
2012,04,21,14,41,14.20
2012,04,21,14,42,14.20
2012,04,21,14,43,14.20
2012,04,21,14,44,14.20
2012,04,21,14,45,14.30
2012,04,21,14,46,14.30
2012,04,21,14,47,14.30
2012,04,21,14,48,14.30
2012,04,21,14,49,14.30
2012,04,21,14,50,14.20
2012,04,21,14,51,14.10
2012,04,21,14,52,14.00
2012,04,21,14,53,13.90
2012,04,21,14,54,13.90
2012,04,21,14,55,13.90
2012,04,21,14,56,14.00
2012,04,21,14,57,14.00
2012,04,21,14,58,14.00
2012,04,21,14,59,14.10
2012,04,21,15,00,14.10
2012,04,21,15,01,14.20
2012,04,21,15,02,14.30
2012,04,21,15,03,14.40
2012,04,21,15,04,14.50
2012,04,21,15,05,14.60
2012,04,21,15,06,14.70
2012,04,21,15,07,14.80
2012,04,21,15,08,14.70
2012,04,21,15,09,14.70
2012,04,21,15,10,14.60
2012,04,21,15,11,14.50
2012,04,21,15,12,14.40
2012,04,21,15,13,14.30
2012,04,21,15,14,14.20
2012,04,21,15,15,14.10
2012,04,21,15,16,14.10
2012,04,21,15,17,14.10
2012,04,21,15,18,14.10
2012,04,21,15,19,14.20
2012,04,21,15,20,14.20
2012,04,21,15,21,14.30
2012,04,21,15,22,14.30
2012,04,21,15,23,14.40
2012,04,21,15,24,14.50
2012,04,21,15,25,14.50
2012,04,21,15,26,14.60
2012,04,21,15,27,14.60
2012,04,21,15,28,14.60
2012,04,21,15,29,14.60
2012,04,21,15,30,14.60
2012,04,21,15,31,14.60
2012,04,21,15,32,14.60
2012,04,21,15,33,14.70
2012,04,21,15,34,14.80
2012,04,21,15,35,14.90
2012,04,21,15,36,15.00
2012,04,21,15,37,15.00
2012,04,21,15,38,15.00
2012,04,21,15,39,15.00
2012,04,21,15,40,15.20
2012,04,21,15,41,15.30
2012,04,21,15,42,15.40
2012,04,21,15,43,15.50
2012,04,21,15,44,15.60
2012,04,21,15,45,15.60
2012,04,21,15,46,15.60
2012,04,21,15,47,15.70
2012,04,21,15,48,15.70
2012,04,21,15,49,15.80
2012,04,21,15,50,15.80
2012,04,21,15,51,15.80
2012,04,21,15,52,15.80
2012,04,21,15,53,15.90
2012,04,21,15,54,15.90
2012,04,21,15,55,15.90
2012,04,21,15,56,15.90
2012,04,21,15,57,16.00
2012,04,21,15,58,16.00
2012,04,21,15,59,16.10
2012,04,21,16,00,16.10
2012,04,21,16,01,16.00
2012,04,21,16,02,16.00
2012,04,21,16,03,16.10
2012,04,21,16,04,16.10
2012,04,21,16,05,16.10
2012,04,21,16,06,16.10
2012,04,21,16,07,16.20
2012,04,21,16,08,16.20
2012,04,21,16,09,16.20
2012,04,21,16,10,16.30
2012,04,21,16,11,16.30
2012,04,21,16,12,16.40
2012,04,21,16,13,16.40
2012,04,21,16,14,16.50
2012,04,21,16,15,16.50
2012,04,21,16,16,16.50
2012,04,21,16,17,16.50
2012,04,21,16,18,16.50
2012,04,21,16,19,16.60
2012,04,21,16,20,16.60
2012,04,21,16,21,16.60
2012,04,21,16,22,16.60
2012,04,21,16,23,16.60
2012,04,21,16,24,16.70
2012,04,21,16,25,16.70
2012,04,21,16,26,16.70
2012,04,21,16,27,16.60
2012,04,21,16,28,16.60
2012,04,21,16,29,16.60
2012,04,21,16,30,16.50
2012,04,21,16,31,16.50
2012,04,21,16,32,16.40
2012,04,21,16,33,16.40
2012,04,21,16,34,16.40
2012,04,21,16,35,16.40
2012,04,21,16,36,16.40
2012,04,21,16,37,16.40
2012,04,21,16,38,16.40
2012,04,21,16,39,16.40
2012,04,21,16,40,16.30
2012,04,21,16,41,16.30
2012,04,21,16,42,16.30
2012,04,21,16,43,16.20
2012,04,21,16,44,16.10
2012,04,21,16,45,16.10
2012,04,21,16,46,16.10
2012,04,21,16,47,16.00
2012,04,21,16,48,16.00
2012,04,21,16,49,16.00
2012,04,21,16,50,16.00
2012,04,21,16,51,16.10
2012,04,21,16,52,16.10
2012,04,21,16,53,16.10
2012,04,21,16,54,16.20
2012,04,21,16,55,16.20
2012,04,21,16,56,16.30
2012,04,21,16,57,16.30
2012,04,21,16,58,16.30
2012,04,21,16,59,16.40
2012,04,21,17,00,16.40
2012,04,21,17,01,16.40
2012,04,21,17,02,16.40
2012,04,21,17,03,16.40
2012,04,21,17,04,16.30
2012,04,21,17,05,16.30
2012,04,21,17,06,16.30
2012,04,21,17,07,16.20
2012,04,21,17,08,16.10
2012,04,21,17,09,16.10
2012,04,21,17,10,16.00
2012,04,21,17,11,15.90
2012,04,21,17,12,15.90
2012,04,21,17,13,15.80
2012,04,21,17,14,15.80
2012,04,21,17,15,15.80
2012,04,21,17,16,15.70
2012,04,21,17,17,15.70
2012,04,21,17,18,15.70
2012,04,21,17,19,15.70
2012,04,21,17,20,15.70
2012,04,21,17,21,15.60
2012,04,21,17,22,15.60
2012,04,21,17,23,15.60
2012,04,21,17,24,15.60
2012,04,21,17,25,15.70
2012,04,21,17,26,15.70
2012,04,21,17,27,15.70
2012,04,21,17,28,15.70
2012,04,21,17,29,15.70
2012,04,21,17,30,15.70
2012,04,21,17,31,15.70
2012,04,21,17,32,15.70
2012,04,21,17,33,15.70
2012,04,21,17,34,15.70
2012,04,21,17,35,15.70
2012,04,21,17,36,15.70
2012,04,21,17,37,15.70
2012,04,21,17,38,15.60
2012,04,21,17,39,15.60
2012,04,21,17,40,15.60
2012,04,21,17,41,15.60
2012,04,21,17,42,15.60
2012,04,21,17,43,15.60
2012,04,21,17,44,15.60
2012,04,21,17,45,15.60
2012,04,21,17,46,15.60